Location: City of Moscow
(46.7306°N, 116.9989°W)
Time: 05:17:42
(UTC+00:00)

Orbus 7S? - Pass Details

Date: 22 March 2026
Orbit: 354 x 6170 km, 56.9° (Epoch: 30 September)

Event Time Altitude Azimuth Distance (km) Brightness Sun altitude
Rises 09:10:07 0° 133° (SE) 10,673 9.7 -39.8°
Reaches altitude 10° 09:26:05 10° 112° (ESE) 9,513 9.6 -38.5°
Maximum altitude 09:37:35 13° 93° (E) 8,655 9.6 -37.5°
Drops below altitude 10° 09:47:22 10° 74° (ENE) 8,094 9.7 -36.5°
Sets 09:57:28 0° 53° (NE) 7,928 10.1 -35.5°
